Find Kuiper-00051

NORAD ID: 64511 Int'l Des: 2025-134 Owner: KUIP Country: US Constellation: amazon-leo operational
LEOCIRCULAR

Aktuelle Ansicht

3D-Globus wird geladen...

Über Kuiper-00051

Beschreibung wird geladen...

Nächste Überflüge

Passes for default location (London). Set your location on the main map for personalized predictions.

Höhenverlauf

Loading altitude history...

Zweizeiliger Elementsatz

1 64511U 25134M 26151.50002315 -.00001186 00000-0 -12681-3 0 9992
2 64511 51.8996 220.5392 0001194 44.5872 291.1377 14.79840005 5176
Epoch: 31. Mai 2026 • Age: 9 hours

Aktueller Status

Höhe 633.3 km
Geschwindigkeit 7.55 km/s
Subsatellitenpunkt 40.57°N, 156.06°E
Startdatum 23. Juni 2025
Alter 0.9 years
Typ internet

Technische Details

Klassifizierung Payload
Masse 490.00 kg
Trockenmasse 490.00 kg
Gesamtmasse 490.00 kg
Länge 1.80 m
Durchmesser 0.70 m
Spannweite 5.00 m
Form Box + 2 pan
Hersteller KUIP
Bus-Typ Kuiper
Phasenstatus In Orbit
Besitzer/Staat KUIP/US

Most Searched